Lynn Lake, Saskatchewan

11:02 PM CDT on May 28, 2017 (GMT -0500)
Lynn Lake

Weather History for CYYL - May, 2013

Change the Weather History Date:

Saturday, May 18, 2013

  Actual Average Record
Temperature  
Mean Temperature 53 °F -  
Max Temperature 69 °F 59 °F 80 °F (2016)
Min Temperature 37 °F 37 °F 17 °F (2007)
Degree Days  
Heating Degree Days 12    
Growing Degree Days 3 (Base 50)    
Moisture  
Dew Point 39 °F    
Average Humidity 59    
Maximum Humidity 100    
Minimum Humidity 19    
Precipitation  
Precipitation 0.00 in 0.07 in - ()
Sea Level Pressure  
Sea Level Pressure 30.01 in    
Wind  
Wind Speed - ()    
Max Wind Speed -    
Max Gust Speed -    
Visibility 9.1 miles    
Events      
Averages and records for this station are not official NWS values.
T = Trace of Precipitation, MM = Missing Value Source: Averaged Metar Reports

Daily Weather History Graph

Daily Weather History Graph

Search for Another Location

Airport or City:

Trip Planner

Search our weather history database for the weather conditions in past years. The results will help you decide how hot, cold, wet, or windy it might be!

Date:

Astronomy

May. 18, 2013 Rise Set
Actual Time 5:20 AM CDT 10:02 PM CDT
Civil Twilight 4:26 AM CDT 10:56 PM CDT
Nautical Twilight 2:53 AM CDT 12:32 AM CDT
Astronomical Twilight Sun does not set Sun does not set
Moon 1:46 PM CDT (5/18) 2:39 AM CDT (5/18)
Length of Visible Light 18h 30m
Length of Day
16h 42m
First Quarter, 55% of the Moon is Illuminated
May 18
First Quarter
May 24
Full
May 31
Last Quarter
Jun 8
New
Jun 16
First Quarter

Hourly Weather History & Observations

Time (CDT) Temp. Dew Point Humidity Pressure Visibility Wind Dir Wind Speed Gust Speed Precip Events Conditions
12:00 AM 48.2 °F 44.6 °F 87% 29.92 in 9.0 mi North - - N/A   Clear
1:00 AM 46 °F 44 °F 89% 29.94 in 10 mi Calm Calm - -  
1:00 AM 46.4 °F 44.6 °F 93% 29.94 in 9.0 mi North - - N/A   Clear
2:00 AM 44.6 °F 42.8 °F 93% 29.94 in 9.0 mi North - - N/A   Scattered Clouds
3:00 AM 42.8 °F 41.0 °F 93% 29.94 in 9.0 mi North - - N/A   Partly Cloudy
4:00 AM 42.8 °F 41.0 °F 93% 29.95 in 9.0 mi North - - N/A   Clear
5:00 AM 39.2 °F 37.4 °F 93% 29.96 in 9.0 mi North - - N/A   Partly Cloudy
6:00 AM 39.2 °F 39.2 °F 100% 29.98 in 7.0 mi North - - N/A   Clear
7:00 AM 42 °F 41 °F 94% 29.99 in 10 mi Calm Calm - -  
7:00 AM 42.8 °F 41.0 °F 93% 29.99 in 9.0 mi North - - N/A   Clear
8:00 AM 48.2 °F 42.8 °F 82% 30.00 in 9.0 mi North - - N/A   Clear
9:00 AM 51.8 °F 42.8 °F 71% 30.01 in 9.0 mi North - - N/A   Clear
10:00 AM 57.2 °F 42.8 °F 59% 30.02 in 9.0 mi North - - N/A   Clear
11:00 AM 62.6 °F 42.8 °F 48% 30.02 in 9.0 mi North - - N/A   Clear
12:00 PM 64.4 °F 41.0 °F 42% 30.02 in 9.0 mi North - - N/A   Clear
1:00 PM 67 °F 40 °F 25% 30.03 in 10 mi Calm Calm - -  
1:00 PM 68.0 °F 39.2 °F 35% 30.03 in 9.0 mi North - - N/A   Clear
2:00 PM 66.2 °F 35.6 °F 32% 30.03 in 9.0 mi North - - N/A   Clear
3:00 PM 69.8 °F 33.8 °F 27% 30.03 in 9.0 mi North - - N/A   Scattered Clouds
4:00 PM 68.0 °F 33.8 °F 28% 30.04 in 9.0 mi North - - N/A   Mostly Cloudy
5:00 PM 68.0 °F 33.8 °F 28% 30.04 in 9.0 mi North - - N/A   Mostly Cloudy
6:00 PM 68.0 °F 35.6 °F 30% 30.05 in 9.0 mi North - - N/A   Clear
7:00 PM 68 °F 35 °F 19% 30.05 in 10 mi Calm Calm - -  
7:00 PM 68.0 °F 35.6 °F 30% 30.05 in 9.0 mi North - - N/A   Clear
8:00 PM 66.2 °F 33.8 °F 30% 30.06 in 9.0 mi North - - N/A   Clear
9:00 PM 60.8 °F 33.8 °F 36% 30.08 in 9.0 mi North - - N/A   Clear
10:00 PM 57.2 °F 33.8 °F 41% 30.11 in 9.0 mi North - - N/A   Clear
11:00 PM 51.8 °F 33.8 °F 50% 30.13 in 9.0 mi North - - N/A   Clear